Saint Bonnet de Bellac- Haute Vienne - France
Donnes mto: dimanche, 13/05/2012
Date Horaire Temp. E. Hum. E. P.atmo. Pluie Vent Direction Direction Ensoleilleme Solaire P. de rose Temp au vent Rafales
13/05/2012 00:00 10,9 C 66 % 1029,1 hPa 0,0 mm 8,6 km/h (2 Bft) NE 45 0 min 0 W/m 4,8 C 10,9 C 11,2 km/h (2 Bft)
13/05/2012 00:10 10,8 C 67 % 1029,2 hPa 0,0 mm 7,6 km/h (2 Bft) N-NE 22 0 min 0 W/m 4,9 C 10,8 C 9,0 km/h (2 Bft)
13/05/2012 00:20 10,6 C 68 % 1029,1 hPa 0,0 mm 4,0 km/h (1 Bft) N 360 0 min 0 W/m 4,9 C 10,6 C 6,1 km/h (2 Bft)
13/05/2012 00:30 10,3 C 69 % 1028,9 hPa 0,0 mm 7,9 km/h (2 Bft) N-NE 22 0 min 0 W/m 4,9 C 10,3 C 14,8 km/h (3 Bft)
13/05/2012 00:40 10,3 C 69 % 1028,9 hPa 0,0 mm 8,3 km/h (2 Bft) NE 45 0 min 0 W/m 4,9 C 10,3 C 15,5 km/h (3 Bft)
13/05/2012 00:50 10,1 C 69 % 1029,0 hPa 0,0 mm 5,4 km/h (2 Bft) N-NE 22 0 min 0 W/m 4,7 C 10,1 C 11,9 km/h (2 Bft)
13/05/2012 01:00 9,9 C 70 % 1029,2 hPa 0,0 mm 2,9 km/h (1 Bft) N-NE 22 0 min 0 W/m 4,7 C 9,9 C 4,0 km/h (1 Bft)
13/05/2012 01:10 9,8 C 70 % 1029,1 hPa 0,0 mm 4,3 km/h (1 Bft) E 90 0 min 0 W/m 4,6 C 9,8 C 9,4 km/h (2 Bft)
13/05/2012 01:20 9,6 C 71 % 1029,1 hPa 0,0 mm 5,8 km/h (2 Bft) N 360 0 min 0 W/m 4,6 C 9,1 C 10,1 km/h (2 Bft)
13/05/2012 01:30 9,5 C 71 % 1029,0 hPa 0,0 mm 9,0 km/h (2 Bft) NE 45 0 min 0 W/m 4,5 C 8,2 C 9,0 km/h (2 Bft)
13/05/2012 01:40 9,4 C 71 % 1029,1 hPa 0,0 mm 2,5 km/h (1 Bft) E-NE 67 0 min 0 W/m 4,4 C 9,4 C 4,0 km/h (1 Bft)
13/05/2012 01:50 9,3 C 71 % 1029,0 hPa 0,0 mm 2,5 km/h (1 Bft) NE 45 0 min 0 W/m 4,3 C 9,3 C 4,3 km/h (1 Bft)
13/05/2012 02:00 9,0 C 71 % 1028,9 hPa 0,0 mm 2,9 km/h (1 Bft) E-NE 67 0 min 0 W/m 4,0 C 9,0 C 4,7 km/h (1 Bft)
13/05/2012 02:10 8,8 C 72 % 1028,7 hPa 0,0 mm 5,4 km/h (2 Bft) N 360 0 min 0 W/m 4,0 C 8,3 C 9,0 km/h (2 Bft)
13/05/2012 02:20 8,7 C 72 % 1028,5 hPa 0,0 mm 3,6 km/h (1 Bft) NE 45 0 min 0 W/m 3,9 C 8,7 C 9,4 km/h (2 Bft)
13/05/2012 02:30 8,5 C 73 % 1028,5 hPa 0,0 mm 1,8 km/h (1 Bft) NE 45 0 min 0 W/m 3,9 C 8,5 C 3,2 km/h (1 Bft)
13/05/2012 02:40 8,4 C 73 % 1028,3 hPa 0,0 mm 5,4 km/h (2 Bft) NE 45 0 min 0 W/m 3,8 C 7,8 C 5,4 km/h (2 Bft)
13/05/2012 02:50 8,3 C 74 % 1028,3 hPa 0,0 mm 5,4 km/h (2 Bft) NE 45 0 min 0 W/m 3,9 C 7,7 C 7,9 km/h (2 Bft)
13/05/2012 03:02 8,2 C 74 % 1028,2 hPa 0,0 mm 2,5 km/h (1 Bft) N-NE 22 0 min 0 W/m 3,8 C 8,2 C 7,2 km/h (2 Bft)
13/05/2012 03:10 8,0 C 74 % 1028,0 hPa 0,0 mm 1,8 km/h (1 Bft) N-NE 22 0 min 0 W/m 3,7 C 8,0 C 4,3 km/h (1 Bft)
13/05/2012 03:20 7,8 C 74 % 1028,0 hPa 0,0 mm 0,4 km/h (0 Bft) NE 45 0 min 0 W/m 3,5 C 7,8 C 3,2 km/h (1 Bft)
13/05/2012 03:30 7,7 C 75 % 1027,9 hPa 0,0 mm 5,8 km/h (2 Bft) E-NE 67 0 min 0 W/m 3,6 C 6,9 C 5,8 km/h (2 Bft)
13/05/2012 03:40 7,6 C 76 % 1027,8 hPa 0,0 mm 5,4 km/h (2 Bft) E-NE 67 0 min 0 W/m 3,6 C 6,9 C 8,3 km/h (2 Bft)
13/05/2012 03:50 7,4 C 76 % 1027,5 hPa 0,0 mm 5,8 km/h (2 Bft) NE 45 0 min 0 W/m 3,5 C 6,5 C 7,6 km/h (2 Bft)
13/05/2012 04:00 7,3 C 77 % 1027,5 hPa 0,0 mm 2,5 km/h (1 Bft) N-NE 22 0 min 0 W/m 3,5 C 7,3 C 4,0 km/h (1 Bft)
13/05/2012 04:10 7,1 C 77 % 1027,5 hPa 0,0 mm 3,6 km/h (1 Bft) NE 45 0 min 0 W/m 3,3 C 7,1 C 6,8 km/h (2 Bft)
13/05/2012 04:20 6,9 C 78 % 1027,4 hPa 0,0 mm 1,4 km/h (1 Bft) E-NE 67 0 min 0 W/m 3,3 C 6,9 C 4,3 km/h (1 Bft)
13/05/2012 04:30 6,9 C 79 % 1027,4 hPa 0,0 mm 4,0 km/h (1 Bft) N-NE 22 0 min 0 W/m 3,5 C 6,9 C 9,4 km/h (2 Bft)
13/05/2012 04:40 6,8 C 79 % 1027,3 hPa 0,0 mm 5,0 km/h (1 Bft) NE 45 0 min 0 W/m 3,4 C 6,1 C 5,0 km/h (1 Bft)
13/05/2012 04:50 6,7 C 79 % 1027,4 hPa 0,0 mm 7,2 km/h (2 Bft) N-NE 22 0 min 0 W/m 3,3 C 5,3 C 10,1 km/h (2 Bft)
13/05/2012 05:00 6,6 C 80 % 1027,3 hPa 0,0 mm 5,4 km/h (2 Bft) NE 45 0 min 0 W/m 3,4 C 5,8 C 7,6 km/h (2 Bft)
13/05/2012 05:10 6,5 C 80 % 1027,4 hPa 0,0 mm 5,8 km/h (2 Bft) NE 45 0 min 0 W/m 3,3 C 5,5 C 10,4 km/h (2 Bft)
13/05/2012 05:20 6,4 C 81 % 1027,3 hPa 0,0 mm 7,2 km/h (2 Bft) NE 45 0 min 0 W/m 3,4 C 5,0 C 11,5 km/h (2 Bft)
13/05/2012 05:30 6,3 C 81 % 1027,3 hPa 0,0 mm 3,6 km/h (1 Bft) NE 45 0 min 0 W/m 3,3 C 6,3 C 7,6 km/h (2 Bft)
13/05/2012 05:40 6,2 C 81 % 1027,2 hPa 0,0 mm 3,2 km/h (1 Bft) N 360 0 min 0 W/m 3,2 C 6,2 C 6,5 km/h (2 Bft)
13/05/2012 05:50 6,1 C 82 % 1027,0 hPa 0,0 mm 2,5 km/h (1 Bft) NE 45 0 min 0 W/m 3,3 C 6,1 C 4,3 km/h (1 Bft)
13/05/2012 06:00 6,1 C 82 % 1026,9 hPa 0,0 mm 4,0 km/h (1 Bft) N-NE 22 0 min 0 W/m 3,3 C 6,1 C 7,2 km/h (2 Bft)
13/05/2012 06:10 5,9 C 82 % 1026,9 hPa 0,0 mm 6,1 km/h (2 Bft) E 90 0 min 0 W/m 3,1 C 4,7 C 7,9 km/h (2 Bft)
13/05/2012 06:20 5,8 C 83 % 1026,9 hPa 0,0 mm 6,8 km/h (2 Bft) N-NE 22 0 min 0 W/m 3,1 C 4,4 C 9,7 km/h (2 Bft)
13/05/2012 06:30 5,8 C 83 % 1026,9 hPa 0,0 mm 9,4 km/h (2 Bft) N-NE 22 0 min 0 W/m 3,1 C 3,7 C 16,2 km/h (3 Bft)
13/05/2012 06:40 5,7 C 83 % 1027,0 hPa 0,0 mm 4,7 km/h (1 Bft) NE 45 0 min 0 W/m 3,0 C 5,0 C 8,6 km/h (2 Bft)
13/05/2012 06:50 5,6 C 83 % 1027,0 hPa 0,0 mm 7,6 km/h (2 Bft) N-NE 22 0 min 0 W/m 2,9 C 3,9 C 14,0 km/h (3 Bft)
13/05/2012 07:00 5,5 C 84 % 1026,9 hPa 0,0 mm 6,1 km/h (2 Bft) N-NE 22 0 min 0 W/m 3,0 C 4,3 C 6,1 km/h (2 Bft)
13/05/2012 07:10 5,6 C 85 % 1026,8 hPa 0,0 mm 3,6 km/h (1 Bft) N-NO 337 0 min 0 W/m 3,3 C 5,6 C 3,6 km/h (1 Bft)
13/05/2012 07:20 5,8 C 85 % 1026,8 hPa 0,0 mm 4,3 km/h (1 Bft) N-NE 22 0 min 0 W/m 3,5 C 5,8 C 4,3 km/h (1 Bft)
13/05/2012 07:30 5,8 C 85 % 1026,8 hPa 0,0 mm 5,0 km/h (1 Bft) NE 45 0 min 0 W/m 3,5 C 5,0 C 10,4 km/h (2 Bft)
13/05/2012 07:40 6,2 C 85 % 1026,7 hPa 0,0 mm 5,4 km/h (2 Bft) E-NE 67 0 min 0 W/m 3,9 C 5,3 C 5,4 km/h (2 Bft)
13/05/2012 07:50 6,4 C 85 % 1026,8 hPa 0,0 mm 6,1 km/h (2 Bft) NE 45 0 min 0 W/m 4,1 C 5,3 C 6,5 km/h (2 Bft)
13/05/2012 08:00 6,8 C 85 % 1026,8 hPa 0,0 mm 5,4 km/h (2 Bft) NE 45 0 min 0 W/m 4,5 C 6,0 C 10,1 km/h (2 Bft)
13/05/2012 08:10 7,2 C 84 % 1026,9 hPa 0,0 mm 6,5 km/h (2 Bft) E-NE 67 0 min 0 W/m 4,7 C 6,1 C 11,2 km/h (2 Bft)
13/05/2012 08:20 7,5 C 83 % 1026,9 hPa 0,0 mm 10,8 km/h (2 Bft) E-NE 67 0 min 0 W/m 4,8 C 5,5 C 18,4 km/h (3 Bft)
13/05/2012 08:30 7,9 C 82 % 1026,8 hPa 0,0 mm 9,0 km/h (2 Bft) N 360 0 min 0 W/m 5,0 C 6,3 C 9,4 km/h (2 Bft)
13/05/2012 08:40 8,3 C 81 % 1026,8 hPa 0,0 mm 4,3 km/h (1 Bft) E-NE 67 0 min 0 W/m 5,2 C 8,3 C 9,4 km/h (2 Bft)
13/05/2012 08:50 8,8 C 79 % 1026,8 hPa 0,0 mm 6,1 km/h (2 Bft) N-NE 22 0 min 0 W/m 5,4 C 8,1 C 8,3 km/h (2 Bft)
13/05/2012 09:00 9,1 C 78 % 1026,7 hPa 0,0 mm 8,3 km/h (2 Bft) E-NE 67 0 min 0 W/m 5,5 C 7,9 C 13,7 km/h (3 Bft)
13/05/2012 09:10 9,5 C 77 % 1026,6 hPa 0,0 mm 9,4 km/h (2 Bft) N-NE 22 0 min 0 W/m 5,7 C 8,1 C 9,4 km/h (2 Bft)
13/05/2012 09:20 9,9 C 75 % 1026,6 hPa 0,0 mm 7,9 km/h (2 Bft) NE 45 0 min 0 W/m 5,7 C 8,9 C 7,9 km/h (2 Bft)
13/05/2012 09:30 10,4 C 74 % 1026,7 hPa 0,0 mm 9,4 km/h (2 Bft) NE 45 0 min 0 W/m 6,0 C 10,4 C 13,3 km/h (3 Bft)
13/05/2012 09:40 10,8 C 73 % 1026,7 hPa 0,0 mm 8,6 km/h (2 Bft) N 360 0 min 0 W/m 6,2 C 10,8 C 12,2 km/h (2 Bft)
13/05/2012 09:50 11,2 C 71 % 1026,6 hPa 0,0 mm 8,6 km/h (2 Bft) E-SE 112 0 min 0 W/m 6,1 C 11,2 C 13,0 km/h (3 Bft)
13/05/2012 10:00 11,5 C 71 % 1026,5 hPa 0,0 mm 7,9 km/h (2 Bft) N-NE 22 0 min 0 W/m 6,4 C 11,5 C 14,0 km/h (3 Bft)
13/05/2012 10:10 11,9 C 69 % 1026,5 hPa 0,0 mm 7,2 km/h (2 Bft) NE 45 0 min 0 W/m 6,4 C 11,9 C 9,0 km/h (2 Bft)
13/05/2012 10:20 12,3 C 68 % 1026,6 hPa 0,0 mm 7,9 km/h (2 Bft) N-NE 22 0 min 0 W/m 6,6 C 12,3 C 15,8 km/h (3 Bft)
13/05/2012 10:30 12,5 C 66 % 1026,7 hPa 0,0 mm 13,0 km/h (3 Bft) N-NE 22 0 min 0 W/m 6,3 C 12,5 C 20,2 km/h (4 Bft)
13/05/2012 10:40 12,8 C 64 % 1026,7 hPa 0,0 mm 9,7 km/h (2 Bft) N-NE 22 0 min 0 W/m 6,2 C 12,8 C 16,2 km/h (3 Bft)
13/05/2012 10:50 12,9 C 62 % 1026,4 hPa 0,0 mm 12,6 km/h (3 Bft) NE 45 0 min 0 W/m 5,8 C 12,9 C 12,6 km/h (3 Bft)
13/05/2012 11:00 13,2 C 62 % 1026,4 hPa 0,0 mm 12,2 km/h (2 Bft) N-NE 22 0 min 0 W/m 6,1 C 13,2 C 17,3 km/h (3 Bft)
13/05/2012 11:10 13,5 C 61 % 1026,4 hPa 0,0 mm 8,3 km/h (2 Bft) NE 45 0 min 0 W/m 6,1 C 13,5 C 8,3 km/h (2 Bft)
13/05/2012 11:20 13,9 C 61 % 1026,5 hPa 0,0 mm 7,6 km/h (2 Bft) N 360 0 min 0 W/m 6,5 C 13,9 C 13,0 km/h (3 Bft)
13/05/2012 11:30 14,3 C 58 % 1026,4 hPa 0,0 mm 11,2 km/h (2 Bft) N 360 0 min 0 W/m 6,2 C 14,3 C 16,9 km/h (3 Bft)
13/05/2012 11:40 14,5 C 58 % 1026,5 hPa 0,0 mm 10,8 km/h (2 Bft) N-NE 22 0 min 0 W/m 6,3 C 14,5 C 11,5 km/h (2 Bft)
13/05/2012 11:50 14,8 C 57 % 1026,4 hPa 0,0 mm 7,6 km/h (2 Bft) NE 45 0 min 0 W/m 6,4 C 14,8 C 13,7 km/h (3 Bft)
13/05/2012 12:00 15,1 C 55 % 1026,4 hPa 0,0 mm 6,5 km/h (2 Bft) NE 45 0 min 0 W/m 6,1 C 15,1 C 6,5 km/h (2 Bft)
13/05/2012 12:10 15,3 C 52 % 1026,2 hPa 0,0 mm 12,2 km/h (2 Bft) N 360 0 min 0 W/m 5,5 C 15,3 C 16,9 km/h (3 Bft)
13/05/2012 12:20 15,4 C 54 % 1026,2 hPa 0,0 mm 8,3 km/h (2 Bft) NE 45 0 min 0 W/m 6,1 C 15,4 C 13,3 km/h (3 Bft)
13/05/2012 12:30 15,5 C 54 % 1026,1 hPa 0,0 mm 7,9 km/h (2 Bft) N 360 0 min 0 W/m 6,2 C 15,5 C 10,1 km/h (2 Bft)
13/05/2012 12:40 15,6 C 53 % 1026,0 hPa 0,0 mm 6,1 km/h (2 Bft) N-NE 22 0 min 0 W/m 6,1 C 15,6 C 7,9 km/h (2 Bft)
13/05/2012 12:50 15,9 C 52 % 1026,0 hPa 0,0 mm 10,1 km/h (2 Bft) NE 45 0 min 0 W/m 6,1 C 15,9 C 14,8 km/h (3 Bft)
13/05/2012 13:00 16,0 C 52 % 1025,8 hPa 0,0 mm 12,6 km/h (3 Bft) E-NE 67 0 min 0 W/m 6,2 C 16,0 C 18,0 km/h (3 Bft)
13/05/2012 13:10 16,1 C 49 % 1025,7 hPa 0,0 mm 14,4 km/h (3 Bft) NO 315 0 min 0 W/m 5,4 C 16,1 C 24,1 km/h (4 Bft)
13/05/2012 13:20 16,0 C 50 % 1025,8 hPa 0,0 mm 13,0 km/h (3 Bft) N 360 0 min 0 W/m 5,6 C 16,0 C 22,7 km/h (4 Bft)
13/05/2012 13:30 16,1 C 51 % 1025,7 hPa 0,0 mm 10,8 km/h (2 Bft) N-NE 22 0 min 0 W/m 6,0 C 16,1 C 18,4 km/h (3 Bft)
13/05/2012 13:40 16,2 C 50 % 1025,6 hPa 0,0 mm 7,6 km/h (2 Bft) N-NE 22 0 min 0 W/m 5,8 C 16,2 C 14,4 km/h (3 Bft)
13/05/2012 13:50 16,3 C 51 % 1025,6 hPa 0,0 mm 8,3 km/h (2 Bft) NE 45 0 min 0 W/m 6,1 C 16,3 C 13,0 km/h (3 Bft)
13/05/2012 14:00 16,4 C 50 % 1025,3 hPa 0,0 mm 10,1 km/h (2 Bft) N-NE 22 0 min 0 W/m 6,0 C 16,4 C 12,6 km/h (3 Bft)
13/05/2012 14:10 16,5 C 50 % 1025,3 hPa 0,0 mm 8,3 km/h (2 Bft) NE 45 0 min 0 W/m 6,0 C 16,5 C 12,2 km/h (2 Bft)
13/05/2012 14:20 16,6 C 49 % 1025,2 hPa 0,0 mm 10,1 km/h (2 Bft) N 360 0 min 0 W/m 5,8 C 16,6 C 11,9 km/h (2 Bft)
13/05/2012 14:30 16,6 C 48 % 1025,3 hPa 0,0 mm 10,4 km/h (2 Bft) E-NE 67 0 min 0 W/m 5,5 C 16,6 C 11,9 km/h (2 Bft)
13/05/2012 14:40 16,8 C 51 % 1025,1 hPa 0,0 mm 10,4 km/h (2 Bft) NE 45 0 min 0 W/m 6,6 C 16,8 C 14,0 km/h (3 Bft)
13/05/2012 14:50 17,1 C 48 % 1025,0 hPa 0,0 mm 8,3 km/h (2 Bft) E-NE 67 0 min 0 W/m 6,0 C 17,1 C 15,8 km/h (3 Bft)
13/05/2012 15:00 17,1 C 48 % 1024,9 hPa 0,0 mm 9,7 km/h (2 Bft) NE 45 0 min 0 W/m 6,0 C 17,1 C 11,2 km/h (2 Bft)
13/05/2012 15:10 17,1 C 48 % 1024,8 hPa 0,0 mm 10,4 km/h (2 Bft) NE 45 0 min 0 W/m 6,0 C 17,1 C 13,7 km/h (3 Bft)
13/05/2012 15:20 17,1 C 48 % 1024,8 hPa 0,0 mm 7,6 km/h (2 Bft) N-NE 22 0 min 0 W/m 6,0 C 17,1 C 10,1 km/h (2 Bft)
13/05/2012 15:30 17,1 C 48 % 1024,7 hPa 0,0 mm 10,1 km/h (2 Bft) NE 45 0 min 0 W/m 6,0 C 17,1 C 17,3 km/h (3 Bft)
13/05/2012 15:40 17,0 C 47 % 1024,6 hPa 0,0 mm 12,6 km/h (3 Bft) N 360 0 min 0 W/m 5,6 C 17,0 C 18,7 km/h (3 Bft)
13/05/2012 15:50 16,9 C 49 % 1024,5 hPa 0,0 mm 10,4 km/h (2 Bft) E-NE 67 0 min 0 W/m 6,1 C 16,9 C 16,6 km/h (3 Bft)
13/05/2012 16:00 16,9 C 49 % 1024,6 hPa 0,0 mm 7,6 km/h (2 Bft) N-NE 22 0 min 0 W/m 6,1 C 16,9 C 10,4 km/h (2 Bft)
13/05/2012 16:10 17,1 C 48 % 1024,5 hPa 0,0 mm 9,4 km/h (2 Bft) NE 45 0 min 0 W/m 6,0 C 17,1 C 16,9 km/h (3 Bft)
13/05/2012 16:20 16,9 C 48 % 1024,6 hPa 0,0 mm 6,5 km/h (2 Bft) N-NE 22 0 min 0 W/m 5,8 C 16,9 C 18,7 km/h (3 Bft)
13/05/2012 16:30 16,9 C 46 % 1024,2 hPa 0,0 mm 15,8 km/h (3 Bft) N 360 0 min 0 W/m 5,2 C 16,9 C 24,1 km/h (4 Bft)
13/05/2012 16:40 16,9 C 48 % 1024,0 hPa 0,0 mm 8,6 km/h (2 Bft) N-NE 22 0 min 0 W/m 5,8 C 16,9 C 9,7 km/h (2 Bft)
13/05/2012 16:50 16,9 C 47 % 1024,1 hPa 0,0 mm 9,4 km/h (2 Bft) N-NE 22 0 min 0 W/m 5,5 C 16,9 C 13,7 km/h (3 Bft)
13/05/2012 17:00 17,1 C 47 % 1024,0 hPa 0,0 mm 11,9 km/h (2 Bft) N-NE 22 0 min 0 W/m 5,7 C 17,1 C 11,9 km/h (2 Bft)
13/05/2012 17:10 17,3 C 48 % 1023,9 hPa 0,0 mm 4,3 km/h (1 Bft) NE 45 0 min 0 W/m 6,2 C 17,3 C 6,8 km/h (2 Bft)
13/05/2012 17:20 17,5 C 48 % 1023,7 hPa 0,0 mm 7,6 km/h (2 Bft) NE 45 0 min 0 W/m 6,4 C 17,5 C 13,3 km/h (3 Bft)
13/05/2012 17:30 17,5 C 46 % 1023,8 hPa 0,0 mm 7,6 km/h (2 Bft) N-NE 22 0 min 0 W/m 5,8 C 17,5 C 15,8 km/h (3 Bft)
13/05/2012 17:40 17,4 C 46 % 1023,6 hPa 0,0 mm 9,0 km/h (2 Bft) E 90 0 min 0 W/m 5,7 C 17,4 C 11,9 km/h (2 Bft)
13/05/2012 17:50 17,5 C 47 % 1023,5 hPa 0,0 mm 5,0 km/h (1 Bft) NE 45 0 min 0 W/m 6,1 C 17,5 C 7,6 km/h (2 Bft)
13/05/2012 18:00 17,6 C 47 % 1023,4 hPa 0,0 mm 2,5 km/h (1 Bft) NE 45 0 min 0 W/m 6,2 C 17,6 C 4,0 km/h (1 Bft)
13/05/2012 18:10 17,7 C 45 % 1023,3 hPa 0,0 mm 8,3 km/h (2 Bft) NE 45 0 min 0 W/m 5,6 C 17,7 C 13,3 km/h (3 Bft)
13/05/2012 18:20 17,5 C 46 % 1023,1 hPa 0,0 mm 6,1 km/h (2 Bft) N 360 0 min 0 W/m 5,8 C 17,5 C 9,0 km/h (2 Bft)
13/05/2012 18:30 17,4 C 47 % 1022,9 hPa 0,0 mm 4,7 km/h (1 Bft) N-NE 22 0 min 0 W/m 6,0 C 17,4 C 9,7 km/h (2 Bft)
13/05/2012 18:40 17,4 C 47 % 1022,8 hPa 0,0 mm 6,8 km/h (2 Bft) N-NE 22 0 min 0 W/m 6,0 C 17,4 C 10,1 km/h (2 Bft)
13/05/2012 18:50 17,4 C 46 % 1022,9 hPa 0,0 mm 9,7 km/h (2 Bft) N-NE 22 0 min 0 W/m 5,7 C 17,4 C 13,7 km/h (3 Bft)
13/05/2012 19:00 17,4 C 47 % 1023,0 hPa 0,0 mm 0,7 km/h (0 Bft) N-NE 22 0 min 0 W/m 6,0 C 17,4 C 0,7 km/h (0 Bft)
13/05/2012 19:10 17,4 C 48 % 1022,9 hPa 0,0 mm 5,0 km/h (1 Bft) N-NE 22 0 min 0 W/m 6,3 C 17,4 C 10,1 km/h (2 Bft)
_ Min-Heure 07:00 18:10 18:40 - 03:20 - - - - 06:50 06:30 19:00
Minimum _ 5,5 C 45 % 1022,8 hPa - 0,4 km/h (0 Bft) - - - - 2,9 C 3,7 C 0,7 km/h (0 Bft)
_ Max-Heure 18:10 08:00 01:00 19:10 16:30 - - 19:10 19:10 14:40 18:10 16:30
Maximum _ 17,7 C 85 % 1029,2 hPa 0,0 mm 15,8 km/h
N (3 Bft)
- - 0 min 0 W/m 6,6 C 17,7 C 24,1 km/h
N (4 Bft)
Moyenne _ 11,8 C 65 % 1026,4 hPa #0,0 mm 7,1 km/h (2 Bft) NE - #0 min. 0 W/m 5,0 C 11,6 C 10,8 km/h (2 Bft)
Saint Bonnet de Bellac- Haute Vienne - France